^^
Your Local Weather - Clay, NY Station Historical Data
Daily Summary for January 13, 2017 Units:  Metric    English   Both
« Previous Day
Next Day »
Daily Weekly Monthly Yearly Custom
  High: Low: Average:
Temperature: 1.6 °C -6.3 °C -1.6 °C
Dew Point: 0.3 °C -11.8 °C -6.6 °C
Humidity: 92% 59% 69%
Wind Speed: 12.9km/h 0km/h 6.1km/h
Wind Gust: 20.9km/h - -
Wind- - WNW
Pressure: 1040.9 hPa 1021.2 hPa -
Precipitation: 0 mm    
Historical Graphs
 
 
Tabular Data for January 13, 2017
Time Temperature Dew Point Pressure Wind Wind Speed Wind Gust Humidity Rainfall Rate (Hourly) solar
00:02 1.5 °C 0.2 °C 1021.2 hPa NW 4.8 km/h 6.4 km/h 91% 0 mm 0 W/m2
00:08 1.4 °C 0.3 °C 1021.2 hPa NW 3.2 km/h 6.4 km/h 92% 0 mm 0 W/m2
00:14 1.4 °C 0.1 °C 1021.6 hPa WNW 3.2 km/h 6.4 km/h 91% 0 mm 0 W/m2
00:20 1.4 °C 0.3 °C 1021.6 hPa WNW 3.2 km/h 3.2 km/h 92% 0 mm 0 W/m2
00:26 1.4 °C 0.3 °C 1021.6 hPa NW 3.2 km/h 6.4 km/h 92% 0 mm 0 W/m2
00:32 1.4 °C 0.3 °C 1021.6 hPa West 3.2 km/h 4.8 km/h 92% 0 mm 0 W/m2
00:38 1.4 °C 0.1 °C 1021.6 hPa WNW 3.2 km/h 8 km/h 91% 0 mm 0 W/m2
00:44 1.4 °C 0.1 °C 1021.6 hPa NW 3.2 km/h 3.2 km/h 91% 0 mm 0 W/m2
00:50 1.4 °C 0.1 °C 1021.9 hPa WNW 3.2 km/h 3.2 km/h 91% 0 mm 0 W/m2
00:56 1.4 °C 0 °C 1021.9 hPa West 3.2 km/h 6.4 km/h 90% 0 mm 0 W/m2
01:02 1.4 °C 0 °C 1021.9 hPa West 3.2 km/h 8 km/h 90% 0 mm 0 W/m2
01:08 1.4 °C -0.2 °C 1021.9 hPa WNW 3.2 km/h 8 km/h 89% 0 mm 0 W/m2
01:14 1.4 °C -0.2 °C 1022.2 hPa WNW 3.2 km/h 3.2 km/h 89% 0 mm 0 W/m2
01:20 1.5 °C -0.3 °C 1022.6 hPa West 4.8 km/h 8 km/h 88% 0 mm 0 W/m2
01:26 1.6 °C -0.4 °C 1022.6 hPa NW 4.8 km/h 12.9 km/h 87% 0 mm 0 W/m2
01:32 1.6 °C -0.6 °C 1022.6 hPa NW 4.8 km/h 6.4 km/h 86% 0 mm 0 W/m2
01:38 1.6 °C -0.6 °C 1022.6 hPa NW 4.8 km/h 8 km/h 86% 0 mm 0 W/m2
01:44 1.5 °C -0.7 °C 1022.6 hPa West 4.8 km/h 9.7 km/h 85% 0 mm 0 W/m2
01:50 1.6 °C -0.7 °C 1022.9 hPa WNW 4.8 km/h 4.8 km/h 85% 0 mm 0 W/m2
01:56 1.5 °C -0.7 °C 1022.6 hPa NW 4.8 km/h 6.4 km/h 85% 0 mm 0 W/m2
02:02 1.5 °C -0.7 °C 1022.9 hPa WNW 3.2 km/h 4.8 km/h 85% 0 mm 0 W/m2
02:08 1.5 °C -0.7 °C 1022.9 hPa WNW 3.2 km/h 6.4 km/h 85% 0 mm 0 W/m2
02:14 1.4 °C -0.8 °C 1022.9 hPa West 3.2 km/h 4.8 km/h 85% 0 mm 0 W/m2
02:20 1.5 °C -0.9 °C 1023.6 hPa WNW 4.8 km/h 4.8 km/h 84% 0 mm 0 W/m2
02:26 1.5 °C -0.9 °C 1023.6 hPa WNW 4.8 km/h 4.8 km/h 84% 0 mm 0 W/m2
02:32 1.4 °C -0.9 °C 1023.6 hPa WSW 3.2 km/h 3.2 km/h 84% 0 mm 0 W/m2
02:38 1.4 °C -0.9 °C 1023.9 hPa West 3.2 km/h 8 km/h 84% 0 mm 0 W/m2
02:44 1.4 °C -0.9 °C 1023.9 hPa West 3.2 km/h 4.8 km/h 84% 0 mm 0 W/m2
02:50 1.4 °C -1 °C 1024.3 hPa WNW 3.2 km/h 3.2 km/h 84% 0 mm 0 W/m2
02:56 1.4 °C -1 °C 1024.3 hPa West 3.2 km/h 4.8 km/h 84% 0 mm 0 W/m2
03:02 1.4 °C -1.2 °C 1024.3 hPa NW 4.8 km/h 4.8 km/h 83% 0 mm 0 W/m2
03:08 1.4 °C -1.3 °C 1024.6 hPa WNW 4.8 km/h 9.7 km/h 82% 0 mm 0 W/m2
03:14 1.4 °C -2.1 °C 1024.6 hPa WNW 6.4 km/h 20.9 km/h 78% 0 mm 0 W/m2
03:20 1.4 °C -2.7 °C 1024.9 hPa WNW 9.7 km/h 11.3 km/h 74% 0 mm 0 W/m2
03:26 1.4 °C -2.7 °C 1025.3 hPa NNW 9.7 km/h 11.3 km/h 74% 0 mm 0 W/m2
03:32 1.3 °C -2.8 °C 1025.3 hPa WNW 8 km/h 11.3 km/h 74% 0 mm 0 W/m2
03:38 1.3 °C -2.8 °C 1025.3 hPa WNW 8 km/h 12.9 km/h 74% 0 mm 0 W/m2
03:44 1.3 °C -3 °C 1026 hPa WNW 8 km/h 9.7 km/h 73% 0 mm 0 W/m2
03:50 1.3 °C -2.8 °C 1026 hPa NW 8 km/h 8 km/h 74% 0 mm 0 W/m2
04:02 1.2 °C -3.2 °C 1026 hPa West 9.7 km/h 9.7 km/h 73% 0 mm 0 W/m2
04:08 1.1 °C -3.4 °C 1026.3 hPa WNW 9.7 km/h 16.1 km/h 72% 0 mm 0 W/m2
04:14 1.1 °C -3.6 °C 1026.3 hPa West 9.7 km/h 12.9 km/h 71% 0 mm 0 W/m2
04:20 1 °C -4.1 °C 1026.3 hPa West 9.7 km/h 9.7 km/h 69% 0 mm 0 W/m2
04:26 0.9 °C -3.9 °C 1026.6 hPa WNW 8 km/h 9.7 km/h 70% 0 mm 0 W/m2
04:32 0.9 °C -4.2 °C 1026.6 hPa NW 8 km/h 8 km/h 69% 0 mm 0 W/m2
04:38 0.8 °C -4.7 °C 1027 hPa WNW 8 km/h 14.5 km/h 67% 0 mm 0 W/m2
04:44 0.7 °C -4.8 °C 1027 hPa North 11.3 km/h 19.3 km/h 67% 0 mm 0 W/m2
04:50 0.6 °C -4.9 °C 1027.3 hPa NW 12.9 km/h 12.9 km/h 67% 0 mm 0 W/m2
04:56 0.4 °C -4.8 °C 1027.3 hPa WNW 12.9 km/h 14.5 km/h 68% 0 mm 0 W/m2
05:02 0.4 °C -4.8 °C 1027.7 hPa West 11.3 km/h 14.5 km/h 68% 0 mm 0 W/m2
05:08 0.4 °C -4.8 °C 1027.3 hPa West 11.3 km/h 16.1 km/h 68% 0 mm 0 W/m2
05:14 0.3 °C -4.9 °C 1027.7 hPa West 11.3 km/h 12.9 km/h 68% 0 mm 0 W/m2
05:20 0.3 °C -4.9 °C 1028 hPa West 9.7 km/h 12.9 km/h 68% 0 mm 0 W/m2
05:26 0.2 °C -5.2 °C 1028 hPa WNW 9.7 km/h 12.9 km/h 67% 0 mm 0 W/m2
05:32 0.2 °C -5.2 °C 1028 hPa NW 9.7 km/h 11.3 km/h 67% 0 mm 0 W/m2
05:38 0.1 °C -5.1 °C 1028.3 hPa West 8 km/h 11.3 km/h 68% 0 mm 0 W/m2
05:44 0.1 °C -5.3 °C 1028.3 hPa NNW 8 km/h 9.7 km/h 67% 0 mm 0 W/m2
05:50 0 °C -5.4 °C 1028.3 hPa WSW 8 km/h 16.1 km/h 67% 0 mm 0 W/m2
05:56 0 °C -5.4 °C 1028.7 hPa WNW 9.7 km/h 16.1 km/h 67% 0 mm 0 W/m2
06:02 -0.1 °C -5.4 °C 1028.7 hPa West 9.7 km/h 11.3 km/h 67% 0 mm 0 W/m2
06:08 -0.1 °C -5.3 °C 1028.7 hPa WNW 8 km/h 11.3 km/h 68% 0 mm 0 W/m2
06:14 -0.2 °C -5.4 °C 1029 hPa WNW 4.8 km/h 8 km/h 68% 0 mm 0 W/m2
06:20 -0.2 °C -5.4 °C 1029 hPa WNW 6.4 km/h 8 km/h 68% 0 mm 0 W/m2
06:26 -0.2 °C -5.4 °C 1029 hPa NW 6.4 km/h 8 km/h 68% 0 mm 0 W/m2
06:32 -0.3 °C -5.5 °C 1029.3 hPa West 8 km/h 11.3 km/h 68% 0 mm 0 W/m2
06:38 -0.3 °C -5.5 °C 1029.3 hPa West 9.7 km/h 12.9 km/h 68% 0 mm 0 W/m2
06:44 -0.3 °C -5.3 °C 1029.3 hPa WNW 8 km/h 9.7 km/h 69% 0 mm 0 W/m2
06:50 -0.4 °C -5.2 °C 1029.7 hPa WSW 6.4 km/h 12.9 km/h 70% 0 mm 0 W/m2
06:56 -0.4 °C -5.2 °C 1030 hPa West 6.4 km/h 12.9 km/h 70% 0 mm 0 W/m2
07:02 -0.4 °C -5.3 °C 1030 hPa West 6.4 km/h 9.7 km/h 70% 0 mm 0 W/m2
07:08 -0.4 °C -5.3 °C 1030 hPa WSW 6.4 km/h 9.7 km/h 70% 0 mm 0 W/m2
07:14 -0.4 °C -5.3 °C 1030 hPa WNW 6.4 km/h 8 km/h 70% 0 mm 0 W/m2
07:20 -0.4 °C -5.4 °C 1030 hPa West 6.4 km/h 6.4 km/h 69% 0 mm 0 W/m2
07:26 -0.4 °C -5.4 °C 1030.4 hPa WNW 6.4 km/h 9.7 km/h 69% 0 mm 0 W/m2
07:32 -0.4 °C -5.2 °C 1030.7 hPa NW 8 km/h 14.5 km/h 70% 0 mm 0 W/m2
07:38 -0.5 °C -5.3 °C 1030.7 hPa NW 9.7 km/h 16.1 km/h 70% 0 mm 0 W/m2
07:44 -0.6 °C -5.4 °C 1030.7 hPa West 8 km/h 11.3 km/h 70% 0 mm 0 W/m2
07:50 -0.7 °C -5.7 °C 1031 hPa NNW 8 km/h 9.7 km/h 69% 0 mm 5 W/m2
07:56 -0.8 °C -5.8 °C 1031 hPa WNW 8 km/h 9.7 km/h 69% 0 mm 7 W/m2
08:02 -0.8 °C -6.2 °C 1031.7 hPa WNW 6.4 km/h 6.4 km/h 67% 0 mm 11 W/m2
08:08 -0.8 °C -6.4 °C 1031.7 hPa NW 8 km/h 8 km/h 66% 0 mm 12 W/m2
08:14 -0.9 °C -6.8 °C 1031.7 hPa NW 8 km/h 12.9 km/h 64% 0 mm 16 W/m2
08:20 -1 °C -7.2 °C 1031.7 hPa WNW 9.7 km/h 9.7 km/h 63% 0 mm 33 W/m2
08:26 -1 °C -6.9 °C 1032.1 hPa NNW 8 km/h 9.7 km/h 64% 0 mm 28 W/m2
08:32 -1.1 °C -7.2 °C 1032.1 hPa NNW 9.7 km/h 16.1 km/h 63% 0 mm 26 W/m2
08:38 -1.1 °C -7.1 °C 1032.1 hPa WNW 9.7 km/h 16.1 km/h 64% 0 mm 23 W/m2
08:44 -1.2 °C -6.9 °C 1032.4 hPa NW 8 km/h 9.7 km/h 65% 0 mm 33 W/m2
08:50 -1.1 °C -6.7 °C 1032.7 hPa WNW 6.4 km/h 12.9 km/h 66% 0 mm 44 W/m2
08:56 -1.1 °C -7.3 °C 1032.7 hPa WNW 8 km/h 17.7 km/h 63% 0 mm 74 W/m2
09:03 -1.1 °C -7.4 °C 1033.1 hPa WNW 8 km/h 11.3 km/h 62% 0 mm 53 W/m2
09:08 -1 °C -7.6 °C 1033.1 hPa NW 8 km/h 11.3 km/h 61% 0 mm 114 W/m2
09:14 -0.9 °C -7.7 °C 1033.4 hPa WNW 9.7 km/h 16.1 km/h 60% 0 mm 100 W/m2
09:20 -0.9 °C -7.5 °C 1033.4 hPa West 9.7 km/h 12.9 km/h 61% 0 mm 70 W/m2
09:26 -1 °C -7.4 °C 1033.7 hPa WNW 6.4 km/h 12.9 km/h 62% 0 mm 77 W/m2
09:32 -1.1 °C -7.6 °C 1033.7 hPa NW 6.4 km/h 8 km/h 61% 0 mm 113 W/m2
09:38 -0.9 °C -7.7 °C 1033.7 hPa NNW 6.4 km/h 12.9 km/h 60% 0 mm 70 W/m2
09:44 -0.9 °C -7.5 °C 1033.7 hPa WNW 6.4 km/h 8 km/h 61% 0 mm 102 W/m2
09:50 -0.9 °C -7.9 °C 1034.1 hPa NW 6.4 km/h 6.4 km/h 59% 0 mm 88 W/m2
09:56 -0.9 °C -7.5 °C 1034.1 hPa NW 8 km/h 11.3 km/h 61% 0 mm 84 W/m2
10:02 -1 °C -7.6 °C 1034.4 hPa WSW 8 km/h 8 km/h 61% 0 mm 100 W/m2
10:08 -1 °C -7.8 °C 1034.4 hPa WNW 8 km/h 11.3 km/h 60% 0 mm 95 W/m2
10:14 -1.1 °C -7.8 °C 1034.4 hPa WNW 8 km/h 8 km/h 60% 0 mm 70 W/m2
10:20 -1.1 °C -7.8 °C 1034.8 hPa NW 8 km/h 8 km/h 60% 0 mm 63 W/m2
10:26 -1.2 °C -6.7 °C 1034.8 hPa NW 6.4 km/h 8 km/h 66% 0 mm 54 W/m2
10:32 -1.3 °C -6.3 °C 1034.8 hPa NW 6.4 km/h 6.4 km/h 69% 0 mm 77 W/m2
10:38 -1.4 °C -6.2 °C 1034.8 hPa NW 6.4 km/h 8 km/h 70% 0 mm 72 W/m2
10:44 -1.4 °C -6.3 °C 1034.8 hPa NW 6.4 km/h 9.7 km/h 69% 0 mm 91 W/m2
10:50 -1.4 °C -6.7 °C 1034.8 hPa NW 8 km/h 8 km/h 67% 0 mm 107 W/m2
10:56 -1.2 °C -7.6 °C 1034.8 hPa WNW 8 km/h 16.1 km/h 62% 0 mm 98 W/m2
11:04 -1.2 °C -7.3 °C 1035.1 hPa WNW 9.7 km/h 14.5 km/h 63% 0 mm 69 W/m2
11:10 -1.4 °C -6.6 °C 1035.4 hPa WNW 9.7 km/h 9.7 km/h 68% 0 mm 88 W/m2
11:16 -1.7 °C -6.1 °C 1035.4 hPa NW 9.7 km/h 12.9 km/h 72% 0 mm 188 W/m2
11:22 -1.7 °C -5.7 °C 1035.4 hPa NNW 9.7 km/h 9.7 km/h 74% 0 mm 105 W/m2
11:28 -1.7 °C -6.1 °C 1035.4 hPa NNW 9.7 km/h 14.5 km/h 72% 0 mm 114 W/m2
11:34 -1.4 °C -5.8 °C 1035.4 hPa North 9.7 km/h 11.3 km/h 72% 0 mm 223 W/m2
11:40 -1.3 °C -6.1 °C 1035.1 hPa NW 8 km/h 8 km/h 70% 0 mm 127 W/m2
11:46 -1.4 °C -6.4 °C 1035.4 hPa NNW 8 km/h 16.1 km/h 69% 0 mm 63 W/m2
11:56 -2.1 °C -5.7 °C 1035.4 hPa North 9.7 km/h 9.7 km/h 76% 0 mm 74 W/m2
12:02 -2.3 °C -5.8 °C 1035.4 hPa WNW 8 km/h 9.7 km/h 77% 0 mm 118 W/m2
12:08 -2.3 °C -5.7 °C 1035.4 hPa NW 8 km/h 12.9 km/h 78% 0 mm 243 W/m2
12:14 -2.2 °C -5.6 °C 1035.4 hPa WNW 8 km/h 8 km/h 78% 0 mm 127 W/m2
12:20 -2.2 °C -5.7 °C 1035.4 hPa NNW 6.4 km/h 8 km/h 77% 0 mm 118 W/m2
12:26 -2 °C -6 °C 1035.4 hPa WNW 6.4 km/h 14.5 km/h 74% 0 mm 128 W/m2
12:32 -1.7 °C -6.1 °C 1035.4 hPa WNW 6.4 km/h 12.9 km/h 72% 0 mm 216 W/m2
12:38 -1.4 °C -6.6 °C 1035.4 hPa WNW 6.4 km/h 12.9 km/h 68% 0 mm 163 W/m2
12:44 -1.4 °C -7.4 °C 1035.4 hPa WNW 8 km/h 11.3 km/h 64% 0 mm 134 W/m2
12:50 -1.4 °C -7.6 °C 1035.8 hPa West 8 km/h 11.3 km/h 63% 0 mm 139 W/m2
12:56 -1.6 °C -7.9 °C 1035.8 hPa WNW 9.7 km/h 11.3 km/h 62% 0 mm 134 W/m2
13:03 -1.6 °C -8.1 °C 1035.8 hPa WNW 9.7 km/h 9.7 km/h 61% 0 mm 174 W/m2
13:08 -1.4 °C -7.6 °C 1035.8 hPa WNW 8 km/h 12.9 km/h 63% 0 mm 163 W/m2
13:14 -1.6 °C -7.6 °C 1035.8 hPa NW 8 km/h 14.5 km/h 64% 0 mm 84 W/m2
13:20 -1.8 °C -7.3 °C 1036.1 hPa NW 9.7 km/h 9.7 km/h 66% 0 mm 91 W/m2
13:26 -1.8 °C -7.3 °C 1036.1 hPa NNE 8 km/h 16.1 km/h 66% 0 mm 60 W/m2
13:32 -2.1 °C -7.4 °C 1036.1 hPa NW 9.7 km/h 9.7 km/h 67% 0 mm 77 W/m2
13:38 -2.2 °C -7.7 °C 1036.1 hPa WNW 9.7 km/h 16.1 km/h 66% 0 mm 56 W/m2
13:44 -2.2 °C -7.5 °C 1036.1 hPa NNW 8 km/h 11.3 km/h 67% 0 mm 62 W/m2
13:50 -2.2 °C -7.3 °C 1036.1 hPa NW 9.7 km/h 9.7 km/h 68% 0 mm 98 W/m2
13:56 -2.1 °C -7.2 °C 1036.1 hPa NNW 9.7 km/h 11.3 km/h 68% 0 mm 137 W/m2
14:02 -2 °C -7.5 °C 1036.1 hPa North 8 km/h 8 km/h 66% 0 mm 84 W/m2
14:10 -2.1 °C -7.4 °C 1036.1 hPa WNW 6.4 km/h 6.4 km/h 67% 0 mm 86 W/m2
14:16 -2.1 °C -7.6 °C 1036.1 hPa NW 4.8 km/h 8 km/h 66% 0 mm 130 W/m2
14:22 -1.9 °C -7.7 °C 1036.1 hPa NNW 4.8 km/h 11.3 km/h 65% 0 mm 113 W/m2
14:28 -2 °C -7.9 °C 1036.5 hPa NW 8 km/h 12.9 km/h 64% 0 mm 104 W/m2
14:34 -2.1 °C -7.6 °C 1036.5 hPa WNW 9.7 km/h 11.3 km/h 66% 0 mm 132 W/m2
14:40 -2.2 °C -7.1 °C 1036.8 hPa NW 8 km/h 8 km/h 69% 0 mm 91 W/m2
14:46 -2.3 °C -7.4 °C 1036.8 hPa WNW 4.8 km/h 8 km/h 68% 0 mm 81 W/m2
14:52 -2.3 °C -7.3 °C 1036.8 hPa NW 4.8 km/h 4.8 km/h 69% 0 mm 54 W/m2
14:58 -2.3 °C -7.4 °C 1037.1 hPa NNW 6.4 km/h 9.7 km/h 68% 0 mm 72 W/m2
15:04 -2.4 °C -7.3 °C 1036.8 hPa WNW 6.4 km/h 9.7 km/h 69% 0 mm 105 W/m2
15:10 -2.2 °C -7.3 °C 1037.1 hPa West 6.4 km/h 6.4 km/h 68% 0 mm 90 W/m2
15:16 -2.2 °C -7.5 °C 1037.1 hPa WNW 6.4 km/h 8 km/h 67% 0 mm 88 W/m2
15:22 -2.1 °C -7.4 °C 1037.1 hPa NNW 4.8 km/h 11.3 km/h 67% 0 mm 97 W/m2
15:28 -2.2 °C -7.5 °C 1037.1 hPa WNW 6.4 km/h 11.3 km/h 67% 0 mm 49 W/m2
15:34 -2.2 °C -7.5 °C 1037.1 hPa NNW 8 km/h 12.9 km/h 67% 0 mm 37 W/m2
15:40 -2.3 °C -7.4 °C 1037.5 hPa NNW 6.4 km/h 11.3 km/h 68% 0 mm 19 W/m2
15:46 -2.4 °C -7.3 °C 1037.5 hPa NW 6.4 km/h 11.3 km/h 69% 0 mm 18 W/m2
15:52 -2.4 °C -7.6 °C 1037.5 hPa WNW 6.4 km/h 9.7 km/h 68% 0 mm 16 W/m2
15:58 -2.4 °C -7.6 °C 1037.5 hPa WNW 6.4 km/h 9.7 km/h 68% 0 mm 33 W/m2
16:04 -2.4 °C -7.6 °C 1037.5 hPa NW 4.8 km/h 6.4 km/h 68% 0 mm 19 W/m2
16:10 -2.5 °C -7.6 °C 1037.8 hPa NW 4.8 km/h 4.8 km/h 68% 0 mm 11 W/m2
16:16 -2.5 °C -7.6 °C 1037.8 hPa NNW 4.8 km/h 6.4 km/h 68% 0 mm 5 W/m2
16:22 -2.5 °C -7.6 °C 1037.8 hPa WNW 6.4 km/h 11.3 km/h 68% 0 mm 5 W/m2
16:28 -2.4 °C -7.6 °C 1037.8 hPa NW 6.4 km/h 11.3 km/h 68% 0 mm 5 W/m2
16:34 -2.5 °C -7.6 °C 1037.8 hPa West 6.4 km/h 9.7 km/h 68% 0 mm 0 W/m2
16:40 -2.5 °C -7.6 °C 1038.1 hPa WNW 4.8 km/h 4.8 km/h 68% 0 mm 0 W/m2
16:46 -2.4 °C -7.6 °C 1038.1 hPa NNW 3.2 km/h 8 km/h 68% 0 mm 0 W/m2
16:52 -2.4 °C -8.3 °C 1038.1 hPa WNW 4.8 km/h 4.8 km/h 64% 0 mm 0 W/m2
16:59 -2.4 °C -8.3 °C 1038.1 hPa WNW 6.4 km/h 14.5 km/h 64% 0 mm 0 W/m2
17:04 -2.4 °C -8.6 °C 1038.1 hPa WNW 6.4 km/h 6.4 km/h 63% 0 mm 0 W/m2
17:10 -2.4 °C -8.6 °C 1038.1 hPa WNW 6.4 km/h 6.4 km/h 63% 0 mm 0 W/m2
17:16 -2.4 °C -8.6 °C 1038.5 hPa NW 6.4 km/h 12.9 km/h 63% 0 mm 0 W/m2
17:22 -2.6 °C -8.7 °C 1038.5 hPa NW 6.4 km/h 8 km/h 63% 0 mm 0 W/m2
17:28 -2.6 °C -8.4 °C 1038.5 hPa NW 4.8 km/h 9.7 km/h 64% 0 mm 0 W/m2
17:34 -2.6 °C -8.7 °C 1038.5 hPa NW 6.4 km/h 8 km/h 63% 0 mm 0 W/m2
17:40 -2.7 °C -8.6 °C 1038.8 hPa NW 4.8 km/h 8 km/h 64% 0 mm 0 W/m2
17:46 -2.7 °C -8.9 °C 1038.8 hPa NW 4.8 km/h 12.9 km/h 62% 0 mm 0 W/m2
17:52 -2.7 °C -8.8 °C 1038.8 hPa WNW 4.8 km/h 6.4 km/h 63% 0 mm 0 W/m2
17:58 -2.7 °C -9.2 °C 1038.8 hPa NW 4.8 km/h 16.1 km/h 61% 0 mm 0 W/m2
18:04 -2.8 °C -9.3 °C 1039.2 hPa WNW 6.4 km/h 6.4 km/h 61% 0 mm 0 W/m2
18:10 -2.8 °C -9.5 °C 1039.2 hPa WNW 4.8 km/h 6.4 km/h 60% 0 mm 0 W/m2
18:16 -2.8 °C -9.3 °C 1039.2 hPa NNW 4.8 km/h 8 km/h 61% 0 mm 0 W/m2
18:22 -2.9 °C -9.4 °C 1039.2 hPa WNW 4.8 km/h 4.8 km/h 61% 0 mm 0 W/m2
18:28 -2.9 °C -9.4 °C 1039.2 hPa NW 4.8 km/h 8 km/h 61% 0 mm 0 W/m2
18:34 -3 °C -9.7 °C 1039.2 hPa NNW 6.4 km/h 17.7 km/h 60% 0 mm 0 W/m2
18:40 -3.1 °C -9.7 °C 1039.5 hPa NW 6.4 km/h 6.4 km/h 60% 0 mm 0 W/m2
18:46 -3.1 °C -9.6 °C 1039.5 hPa NW 6.4 km/h 6.4 km/h 61% 0 mm 0 W/m2
18:52 -3.2 °C -9.4 °C 1039.5 hPa NNW 3.2 km/h 9.7 km/h 62% 0 mm 0 W/m2
18:58 -3.3 °C -9.6 °C 1039.5 hPa WNW 3.2 km/h 11.3 km/h 62% 0 mm 0 W/m2
19:04 -3.3 °C -9.6 °C 1039.8 hPa NW 4.8 km/h 11.3 km/h 62% 0 mm 0 W/m2
19:10 -3.3 °C -9.6 °C 1039.8 hPa WNW 3.2 km/h 3.2 km/h 62% 0 mm 0 W/m2
19:16 -3.2 °C -9.3 °C 1039.8 hPa WNW 3.2 km/h 8 km/h 63% 0 mm 0 W/m2
19:22 -3.2 °C -9.2 °C 1039.8 hPa NW 4.8 km/h 9.7 km/h 63% 0 mm 0 W/m2
19:28 -3.2 °C -9.2 °C 1039.8 hPa NW 4.8 km/h 9.7 km/h 63% 0 mm 0 W/m2
19:34 -3.2 °C -9.3 °C 1040.2 hPa WNW 4.8 km/h 11.3 km/h 63% 0 mm 0 W/m2
19:40 -3.3 °C -9.6 °C 1039.8 hPa NW 4.8 km/h 4.8 km/h 62% 0 mm 0 W/m2
19:46 -3.3 °C -9.6 °C 1040.2 hPa NW 4.8 km/h 6.4 km/h 62% 0 mm 0 W/m2
19:52 -3.3 °C -9.6 °C 1040.2 hPa NW 4.8 km/h 6.4 km/h 62% 0 mm 0 W/m2
19:58 -3.3 °C -9.4 °C 1040.2 hPa NW 4.8 km/h 8 km/h 63% 0 mm 0 W/m2
20:04 -3.4 °C -9.6 °C 1040.2 hPa NW 4.8 km/h 14.5 km/h 62% 0 mm 0 W/m2
20:10 -3.4 °C -9.7 °C 1040.5 hPa North 6.4 km/h 6.4 km/h 62% 0 mm 0 W/m2
20:16 -3.6 °C -10 °C 1040.2 hPa WNW 6.4 km/h 9.7 km/h 61% 0 mm 0 W/m2
20:22 -3.6 °C -9.8 °C 1040.5 hPa WNW 6.4 km/h 8 km/h 62% 0 mm 0 W/m2
20:28 -3.6 °C -10 °C 1040.5 hPa WNW 6.4 km/h 11.3 km/h 61% 0 mm 0 W/m2
20:36 -3.6 °C -9.8 °C 1040.5 hPa NW 4.8 km/h 6.4 km/h 62% 0 mm 0 W/m2
20:42 -3.6 °C -9.6 °C 1040.5 hPa WNW 4.8 km/h 4.8 km/h 63% 0 mm 0 W/m2
20:48 -3.6 °C -9.8 °C 1040.5 hPa WNW 4.8 km/h 8 km/h 62% 0 mm 0 W/m2
20:54 -3.6 °C -9.8 °C 1040.5 hPa NNW 6.4 km/h 6.4 km/h 62% 0 mm 0 W/m2
21:00 -3.8 °C -10 °C 1040.5 hPa WNW 8 km/h 8 km/h 62% 0 mm 0 W/m2
21:06 -3.9 °C -10.1 °C 1040.5 hPa NNW 8 km/h 9.7 km/h 62% 0 mm 0 W/m2
21:12 -4.1 °C -10.3 °C 1040.5 hPa NW 6.4 km/h 8 km/h 62% 0 mm 0 W/m2
21:18 -4.2 °C -10.4 °C 1040.5 hPa NW 6.4 km/h 11.3 km/h 62% 0 mm 0 W/m2
21:24 -4.3 °C -10.6 °C 1040.5 hPa NW 4.8 km/h 9.7 km/h 62% 0 mm 0 W/m2
21:30 -4.4 °C -10.6 °C 1040.5 hPa NNW 4.8 km/h 9.7 km/h 62% 0 mm 0 W/m2
21:36 -4.5 °C -10.7 °C 1040.5 hPa NNW 6.4 km/h 9.7 km/h 62% 0 mm 0 W/m2
21:42 -4.6 °C -10.7 °C 1040.5 hPa WNW 6.4 km/h 6.4 km/h 62% 0 mm 0 W/m2
21:48 -4.7 °C -10.7 °C 1040.5 hPa NNW 3.2 km/h 6.4 km/h 63% 0 mm 0 W/m2
21:54 -4.8 °C -10.8 °C 1040.5 hPa WNW 1.6 km/h 4.8 km/h 63% 0 mm 0 W/m2
22:00 -4.9 °C -10.9 °C 1040.5 hPa WNW 1.6 km/h 1.6 km/h 63% 0 mm 0 W/m2
22:06 -5 °C -10.8 °C 1040.5 hPa NW 1.6 km/h 3.2 km/h 64% 0 mm 0 W/m2
22:12 -5.1 °C -10.8 °C 1040.9 hPa NNW 1.6 km/h 1.6 km/h 64% 0 mm 0 W/m2
22:20 -5.2 °C -11.1 °C 1040.5 hPa NW 1.6 km/h 1.6 km/h 63% 0 mm 0 W/m2
22:26 -5.2 °C -10.9 °C 1040.5 hPa Calm   1.6 km/h 64% 0 mm 0 W/m2
22:32 -5.2 °C -10.8 °C 1040.5 hPa Calm     65% 0 mm 0 W/m2
22:40 -5.3 °C -10.9 °C 1040.5 hPa Calm     65% 0 mm 0 W/m2
22:46 -5.3 °C -11.1 °C 1040.5 hPa Calm   1.6 km/h 64% 0 mm 0 W/m2
22:52 -5.3 °C -11.1 °C 1040.5 hPa NW 1.6 km/h 1.6 km/h 64% 0 mm 0 W/m2
22:58 -5.3 °C -11.1 °C 1040.5 hPa Calm   1.6 km/h 64% 0 mm 0 W/m2
23:04 -5.3 °C -11.3 °C 1040.5 hPa Calm     63% 0 mm 0 W/m2
23:10 -5.3 °C -11.1 °C 1040.5 hPa Calm     64% 0 mm 0 W/m2
23:16 -5.4 °C -11.4 °C 1040.2 hPa Calm   1.6 km/h 63% 0 mm 0 W/m2
23:22 -5.6 °C -11.5 °C 1040.2 hPa Calm     63% 0 mm 0 W/m2
23:28 -5.7 °C -11.4 °C 1040.2 hPa Calm   1.6 km/h 64% 0 mm 0 W/m2
23:34 -5.8 °C -11.7 °C 1040.2 hPa Calm   1.6 km/h 63% 0 mm 0 W/m2
23:40 -5.9 °C -11.6 °C 1040.2 hPa Calm     64% 0 mm 0 W/m2
23:46 -6 °C -11.5 °C 1039.8 hPa Calm     65% 0 mm 0 W/m2
23:52 -6.2 °C -11.7 °C 1039.8 hPa Calm     65% 0 mm 0 W/m2
23:58 -6.3 °C -11.8 °C 1039.8 hPa Calm     65% 0 mm 0 W/m2
Country Meadow, Clay, NY, USA
Compliments of Weather Underground - 2 mb